Buoy 17652

sailwx.info

Track history (hours):
 
Tides and Currents Weather Stations Pressure Air Temp Water Temp Dewpoint Dewpoint Depression Visibility Wind Speed Wind Dir Waves Ship Positions

Drifting buoy 17652

Last reported at 2014-Oct-30 20:00 UTC. Time now 2014-Dec-23 01:35 UTC.
Position S 38°32' E 041°00'.
Warning: this ship's position is 53 days out of date.

Water temperature 17.6 ° C

Date/timePositionNaut miles runAvg speedWind from/ knotsBaromVisibWave heightAir tempDewpointWater temp
2014-Oct-30 20:00S 38°32' E 041°00'1 0.1 17.6
2014-Oct-30 11:00S 38°32' E 040°59'8 0.8 18.0
2014-Oct-30 01:00S 38°30' E 040°49'8 0.8 17.4
2014-Oct-29 15:00S 38°27' E 040°39'5 1.3 17.4
2014-Oct-29 11:00S 38°24' E 040°35'14 1.4 17.4
2014-Oct-29 01:00S 38°13' E 040°24'3 0.6 17.3
2014-Oct-28 19:00S 38°10' E 040°21'5 1.2 17.3
2014-Oct-28 15:00S 38°06' E 040°20'6 0.8 17.3
2014-Oct-28 07:00S 38°01' E 040°15'0 0.0 17.2
2014-Oct-28 05:00S 38°01' E 040°15'0 0.0 17.2
2014-Oct-28 02:00S 38°01' E 040°15'2 0.7 17.2
2014-Oct-27 23:00S 37°59' E 040°15'0 0.4 17.2
2014-Oct-27 22:00S 37°59' E 040°15'6 1.4 17.2
2014-Oct-27 18:00S 37°58' E 040°22'2 0.8 17.3
2014-Oct-27 15:00S 37°59' E 040°25'1 0.5 17.3
2014-Oct-27 13:00S 37°60' E 040°25'1 0.6 17.3
2014-Oct-27 12:00S 37°59' E 040°26'1 1.5 17.3
2014-Oct-27 11:00S 38°01' E 040°27'2 0.4 17.3
2014-Oct-27 06:00S 37°60' E 040°29'0 0.0 16.9
2014-Oct-27 03:00S 37°60' E 040°29'1 0.4 16.9
2014-Oct-27 01:00S 37°59' E 040°30'0 0.0 16.9
2014-Oct-27 00:00S 37°59' E 040°30'0 0.3 16.9
2014-Oct-26 23:00S 37°59' E 040°30'1 0.8 16.9
2014-Oct-26 22:00S 37°59' E 040°31'1 0.5 16.9
2014-Oct-26 20:00S 37°58' E 040°32'1 0.2 16.9
2014-Oct-26 15:00S 37°57' E 040°33'0 0.4 16.9
2014-Oct-26 14:00S 37°57' E 040°33'1 0.8 16.9
2014-Oct-26 13:00S 37°57' E 040°34'0 0.0 16.9
2014-Oct-26 12:00S 37°57' E 040°34'4 0.7 17.0
2014-Oct-26 06:00S 37°54' E 040°39'0 0.0 16.8
2014-Oct-26 05:00S 37°54' E 040°39'0 0.0 16.8
2014-Oct-26 02:00S 37°54' E 040°39'3 0.4 16.6
2014-Oct-25 20:00S 37°53' E 040°42'3 0.7 16.6
2014-Oct-25 15:00S 37°51' E 040°45'1 0.5 16.7
2014-Oct-25 14:00S 37°50' E 040°45'1 0.6 16.7
2014-Oct-25 12:00S 37°50' E 040°47'1 1.0 16.8
2014-Oct-25 11:00S 37°50' E 040°48'2 0.3 16.8
2014-Oct-25 05:00S 37°50' E 040°51'1 0.4 16.8
2014-Oct-25 03:00S 37°49' E 040°51'1 0.5 16.8
2014-Oct-25 01:00S 37°48' E 040°51'0 0.3 16.9
2014-Oct-25 00:00S 37°48' E 040°51'1 1.0 16.9
2014-Oct-24 23:00S 37°47' E 040°51'0 0.0 16.9
2014-Oct-24 22:00S 37°47' E 040°51'2 0.8 16.9
2014-Oct-24 19:00S 37°45' E 040°52'0 0.0 16.9
2014-Oct-24 18:00S 37°45' E 040°52'3 0.9 16.9
2014-Oct-24 15:00S 37°42' E 040°53'2 1.7 17.0
2014-Oct-24 14:00S 37°41' E 040°55'0 0.4 17.0
2014-Oct-24 13:00S 37°41' E 040°55'5 0.7 17.1
2014-Oct-24 06:00S 37°40' E 041°01'1 0.5 16.8
2014-Oct-24 04:00S 37°39' E 041°02'1 0.8 16.8
2014-Oct-24 03:00S 37°39' E 041°02'0 0.2 16.8
2014-Oct-24 02:00S 37°39' E 041°02'1 1.1 16.8
2014-Oct-24 01:00S 37°38' E 041°03'0 0.2 16.8
2014-Oct-24 00:00S 37°38' E 041°04'1 0.7 16.8
2014-Oct-23 22:00S 37°37' E 041°05'5 0.8 16.8
2014-Oct-23 16:00S 37°33' E 041°09'1 0.7 16.8
2014-Oct-23 15:00S 37°32' E 041°09'1 0.9 16.8
2014-Oct-23 14:00S 37°32' E 041°10'8 1.2 16.9
2014-Oct-23 07:00S 37°27' E 041°19'0 0.0 16.8
2014-Oct-23 06:00S 37°27' E 041°19'0 0.3 16.8
2014-Oct-23 05:00S 37°27' E 041°19'0 0.1 16.8
2014-Oct-23 04:00S 37°27' E 041°19'3 1.6 16.8
2014-Oct-23 02:00S 37°25' E 041°22'0 0.0 16.8
2014-Oct-23 01:00S 37°25' E 041°22'0 0.3 16.7
2014-Oct-23 00:00S 37°25' E 041°23'1 1.3 16.7
2014-Oct-22 23:00S 37°24' E 041°24'0 0.0 16.8
2014-Oct-22 22:00S 37°24' E 041°24'3 1.1 16.8
2014-Oct-22 19:00S 37°23' E 041°27'2 1.9 16.8
2014-Oct-22 18:00S 37°22' E 041°30'0 0.0 16.8
2014-Oct-22 17:00S 37°22' E 041°30'1 1.4 16.8
2014-Oct-22 16:00S 37°21' E 041°31'1 1.4 16.8
2014-Oct-22 15:00S 37°20' E 041°32'2 1.6 16.8
2014-Oct-22 14:00S 37°20' E 041°34'0 0.1 16.9
2014-Oct-22 13:00S 37°20' E 041°34'3 0.8 16.9
2014-Oct-22 10:00S 37°19' E 041°37'4 2.1 16.8
2014-Oct-22 08:00S 37°18' E 041°42'1 0.3 16.8
2014-Oct-22 06:00S 37°18' E 041°43'1 0.5 16.8
2014-Oct-22 03:00S 37°19' E 041°45'2 1.1 16.7
2014-Oct-22 01:00S 37°19' E 041°47'1 0.4 16.7
2014-Oct-21 23:00S 37°19' E 041°48'2 1.6 16.7
2014-Oct-21 22:00S 37°20' E 041°50'2 0.8 16.7
2014-Oct-21 20:00S 37°21' E 041°51'0 0.2 16.7
2014-Oct-21 19:00S 37°21' E 041°52'4 0.9 16.7
2014-Oct-21 14:00S 37°24' E 041°56'2 1.9 16.8
2014-Oct-21 13:00S 37°25' E 041°58'0 0.0 16.8
2014-Oct-21 12:00S 37°25' E 041°58'0 0.0 16.8
2014-Oct-21 11:00S 37°25' E 041°58'5 1.6 16.8
2014-Oct-21 08:00S 37°29' E 042°02'0 0.0 16.7
2014-Oct-21 07:00S 37°29' E 042°02'5 4.9 16.7
2014-Oct-21 06:00S 37°32' E 042°07'0 0.0 16.7
2014-Oct-21 05:00S 37°32' E 042°07'7 1.6 16.7
2014-Oct-21 01:00S 37°35' E 042°14'0 0.0 16.7
2014-Oct-21 00:00S 37°35' E 042°14'3 3.0 16.8
2014-Oct-20 23:00S 37°35' E 042°18'2 1.0 16.8
2014-Oct-20 21:00S 37°35' E 042°21'   16.8
Track history (hours):
 
Tides and Currents Weather Stations Pressure Air Temp Water Temp Dewpoint Dewpoint Depression Visibility Wind Speed Wind Dir Waves Ship Positions

Drifting buoy 17652

Last reported at 2014-Oct-30 20:00 UTC. Time now 2014-Dec-23 01:35 UTC.
Position S 38°32' E 041°00'.
Warning: this ship's position is 53 days out of date.

Water temperature 17.6 ° C

Date/timePositionNaut miles runAvg speedWind from/ knotsBaromVisibWave heightAir tempDewpointWater temp
2014-Oct-30 20:00S 38°32' E 041°00'1 0.1 17.6
2014-Oct-30 11:00S 38°32' E 040°59'8 0.8 18.0
2014-Oct-30 01:00S 38°30' E 040°49'8 0.8 17.4
2014-Oct-29 15:00S 38°27' E 040°39'5 1.3 17.4
2014-Oct-29 11:00S 38°24' E 040°35'14 1.4 17.4
2014-Oct-29 01:00S 38°13' E 040°24'3 0.6 17.3
2014-Oct-28 19:00S 38°10' E 040°21'5 1.2 17.3
2014-Oct-28 15:00S 38°06' E 040°20'6 0.8 17.3
2014-Oct-28 07:00S 38°01' E 040°15'0 0.0 17.2
2014-Oct-28 05:00S 38°01' E 040°15'0 0.0 17.2
2014-Oct-28 02:00S 38°01' E 040°15'2 0.7 17.2
2014-Oct-27 23:00S 37°59' E 040°15'0 0.4 17.2
2014-Oct-27 22:00S 37°59' E 040°15'6 1.4 17.2
2014-Oct-27 18:00S 37°58' E 040°22'2 0.8 17.3
2014-Oct-27 15:00S 37°59' E 040°25'1 0.5 17.3
2014-Oct-27 13:00S 37°60' E 040°25'1 0.6 17.3
2014-Oct-27 12:00S 37°59' E 040°26'1 1.5 17.3
2014-Oct-27 11:00S 38°01' E 040°27'2 0.4 17.3
2014-Oct-27 06:00S 37°60' E 040°29'0 0.0 16.9
2014-Oct-27 03:00S 37°60' E 040°29'1 0.4 16.9
2014-Oct-27 01:00S 37°59' E 040°30'0 0.0 16.9
2014-Oct-27 00:00S 37°59' E 040°30'0 0.3 16.9
2014-Oct-26 23:00S 37°59' E 040°30'1 0.8 16.9
2014-Oct-26 22:00S 37°59' E 040°31'1 0.5 16.9
2014-Oct-26 20:00S 37°58' E 040°32'1 0.2 16.9
2014-Oct-26 15:00S 37°57' E 040°33'0 0.4 16.9
2014-Oct-26 14:00S 37°57' E 040°33'1 0.8 16.9
2014-Oct-26 13:00S 37°57' E 040°34'0 0.0 16.9
2014-Oct-26 12:00S 37°57' E 040°34'4 0.7 17.0
2014-Oct-26 06:00S 37°54' E 040°39'0 0.0 16.8
2014-Oct-26 05:00S 37°54' E 040°39'0 0.0 16.8
2014-Oct-26 02:00S 37°54' E 040°39'3 0.4 16.6
2014-Oct-25 20:00S 37°53' E 040°42'3 0.7 16.6
2014-Oct-25 15:00S 37°51' E 040°45'1 0.5 16.7
2014-Oct-25 14:00S 37°50' E 040°45'1 0.6 16.7
2014-Oct-25 12:00S 37°50' E 040°47'1 1.0 16.8
2014-Oct-25 11:00S 37°50' E 040°48'2 0.3 16.8
2014-Oct-25 05:00S 37°50' E 040°51'1 0.4 16.8
2014-Oct-25 03:00S 37°49' E 040°51'1 0.5 16.8
2014-Oct-25 01:00S 37°48' E 040°51'0 0.3 16.9
2014-Oct-25 00:00S 37°48' E 040°51'1 1.0 16.9
2014-Oct-24 23:00S 37°47' E 040°51'0 0.0 16.9
2014-Oct-24 22:00S 37°47' E 040°51'2 0.8 16.9
2014-Oct-24 19:00S 37°45' E 040°52'0 0.0 16.9
2014-Oct-24 18:00S 37°45' E 040°52'3 0.9 16.9
2014-Oct-24 15:00S 37°42' E 040°53'2 1.7 17.0
2014-Oct-24 14:00S 37°41' E 040°55'0 0.4 17.0
2014-Oct-24 13:00S 37°41' E 040°55'5 0.7 17.1
2014-Oct-24 06:00S 37°40' E 041°01'1 0.5 16.8
2014-Oct-24 04:00S 37°39' E 041°02'1 0.8 16.8
2014-Oct-24 03:00S 37°39' E 041°02'0 0.2 16.8
2014-Oct-24 02:00S 37°39' E 041°02'1 1.1 16.8
2014-Oct-24 01:00S 37°38' E 041°03'0 0.2 16.8
2014-Oct-24 00:00S 37°38' E 041°04'1 0.7 16.8
2014-Oct-23 22:00S 37°37' E 041°05'5 0.8 16.8
2014-Oct-23 16:00S 37°33' E 041°09'1 0.7 16.8
2014-Oct-23 15:00S 37°32' E 041°09'1 0.9 16.8
2014-Oct-23 14:00S 37°32' E 041°10'8 1.2 16.9
2014-Oct-23 07:00S 37°27' E 041°19'0 0.0 16.8
2014-Oct-23 06:00S 37°27' E 041°19'0 0.3 16.8
2014-Oct-23 05:00S 37°27' E 041°19'0 0.1 16.8
2014-Oct-23 04:00S 37°27' E 041°19'3 1.6 16.8
2014-Oct-23 02:00S 37°25' E 041°22'0 0.0 16.8
2014-Oct-23 01:00S 37°25' E 041°22'0 0.3 16.7
2014-Oct-23 00:00S 37°25' E 041°23'1 1.3 16.7
2014-Oct-22 23:00S 37°24' E 041°24'0 0.0 16.8
2014-Oct-22 22:00S 37°24' E 041°24'3 1.1 16.8
2014-Oct-22 19:00S 37°23' E 041°27'2 1.9 16.8
2014-Oct-22 18:00S 37°22' E 041°30'0 0.0 16.8
2014-Oct-22 17:00S 37°22' E 041°30'1 1.4 16.8
2014-Oct-22 16:00S 37°21' E 041°31'1 1.4 16.8
2014-Oct-22 15:00S 37°20' E 041°32'2 1.6 16.8
2014-Oct-22 14:00S 37°20' E 041°34'0 0.1 16.9
2014-Oct-22 13:00S 37°20' E 041°34'3 0.8 16.9
2014-Oct-22 10:00S 37°19' E 041°37'4 2.1 16.8
2014-Oct-22 08:00S 37°18' E 041°42'1 0.3 16.8
2014-Oct-22 06:00S 37°18' E 041°43'1 0.5 16.8
2014-Oct-22 03:00S 37°19' E 041°45'2 1.1 16.7
2014-Oct-22 01:00S 37°19' E 041°47'1 0.4 16.7
2014-Oct-21 23:00S 37°19' E 041°48'2 1.6 16.7
2014-Oct-21 22:00S 37°20' E 041°50'2 0.8 16.7
2014-Oct-21 20:00S 37°21' E 041°51'0 0.2 16.7
2014-Oct-21 19:00S 37°21' E 041°52'4 0.9 16.7
2014-Oct-21 14:00S 37°24' E 041°56'2 1.9 16.8
2014-Oct-21 13:00S 37°25' E 041°58'0 0.0 16.8
2014-Oct-21 12:00S 37°25' E 041°58'0 0.0 16.8
2014-Oct-21 11:00S 37°25' E 041°58'5 1.6 16.8
2014-Oct-21 08:00S 37°29' E 042°02'0 0.0 16.7
2014-Oct-21 07:00S 37°29' E 042°02'5 4.9 16.7
2014-Oct-21 06:00S 37°32' E 042°07'0 0.0 16.7
2014-Oct-21 05:00S 37°32' E 042°07'7 1.6 16.7
2014-Oct-21 01:00S 37°35' E 042°14'0 0.0 16.7
2014-Oct-21 00:00S 37°35' E 042°14'3 3.0 16.8
2014-Oct-20 23:00S 37°35' E 042°18'2 1.0 16.8
2014-Oct-20 21:00S 37°35' E 042°21'   16.8

Dump ship's entire track history